Regional Weather Roundup
Issued by NWS Newport/Morehead, NC

Current Version | Previous Version | Graphics & Text | Print | Product List | Glossary On
Versions: 1 2 3 4 5 6 7 8 9 10 11 12 13 14 15 16 17 18 19 20 21 22 23 24 25 26 27 28 29 30 31 32 33 34 35 36 37 38 39 40 41 42 43 44 45 46 47 48 49 50
000 ASUS42 KMHX 211313 RWRMHX WEATHER ROUNDUP FOR EASTERN NORTH CAROLINA NATIONAL WEATHER SERVICE NEWPORT/MOREHEAD CITY NC 900 AM EDT SAT OCT 21 2017 NOTE: "FAIR" INDICATES FEW OR NO CLOUDS BELOW 12,000 FEET WITH NO SIGNIFICANT WEATHER AND/OR OBSTRUCTIONS TO VISIBILITY NCZ015>017-031-032-045>047-102-103-211400- NORTH COAST CITY SKY/WX TMP DP RH WIND PRES REMARKS EDENTON PTSUNNY 57 56 95 CALM 30.34R ELIZABETH CITY SUNNY 62 62 100 CALM 30.33R KITTY HAWK SUNNY 63 63 100 CALM 30.31R MANTEO SUNNY N/A N/A N/A N3 30.33R $$ NCZ045>047-081-094-103-104-211400- CENTRAL COAST CITY SKY/WX TMP DP RH WIND PRES REMARKS FRISCO SUNNY 70 66 87 CALM 30.31R $$ NCZ095-097-098-100-101-211400- SOUTHERN COAST CITY SKY/WX TMP DP RH WIND PRES REMARKS BEAUFORT SUNNY 65 58 78 NE5 30.32R CEDAR ISLAND NOT AVBL JACKSONVILLE SUNNY 61 57 87 CALM 30.32R PINEY ISLAND N/A N/A N/A N/A N7 30.32R WILMINGTON SUNNY 61 57 87 CALM 30.32R $$ NCZ011>013-027>030-043-044-078>080-089-090>093-098-211400- COASTAL PLAIN CITY SKY/WX TMP DP RH WIND PRES REMARKS AHOSKIE SUNNY 52 51 98 CALM 30.34R CLINTON SUNNY 53 53 100 CALM 30.33R ELIZABETHTOWN NOT AVBL GOLDSBORO SUNNY 56 54 92 CALM 30.31R FOG GREENVILLE SUNNY 52 52 100 CALM 30.33R HAVELOCK SUNNY 63 32 31 CALM 30.33R KENANSVILLE SUNNY 54 52 94 CALM 30.32R KINSTON SUNNY 57 55 94 CALM 30.34R NEW BERN SUNNY 61 60 97 CALM 30.34R RICHLANDS SUNNY 57 55 93 CALM 30.33R ROCKY MOUNT SUNNY 56 55 97 N5 30.34R WASHINGTON SUNNY 56 54 92 CALM 30.34R WHITEVILLE SUNNY 56 54 94 CALM 30.31R $$ AMZ130-135-150-152-154-156-158-170-250-252-270-ANZ085-086-088-633-658-670-211400- MARINE OBSERVATIONS STATION/POSITION TIME TEMP WIND PRES WAVE SWELL AIR SEA DIR/SP/G HT/PER HT/PER (UTC) (F) (DEG/KT/KT) (MB) (FT/S) (FT/S) CHESAPEAKE LIGHT NOT AVBL 64 E VA BEACH 1250 67 67 340/ 4/ 6 1027.1 2/ 8 2/ 8 DUCK 1248 65 69 320/ 5/ 5 1026.4 2 E DUCK 1300 69 N/A 2/ 9 OREGON INLET 1236 65 69 330/ 4/ 5 1026.4 13E OREGON INLT 1248 72 N/A 3/ 9 3/ 9 HATTERAS CG 1248 68 71 10/ 8/ 9 1026.3 DIAMOND BUOY 1250 72 80 350/ 14/ 16 1025.7 3/ 8 2/ 8 CAPE LOOKOUT 1200 66 360/ 6/ 8 1025.3 BEAUFORT LAB 1248 65 71 20/ 3/ 4 1026.7 30 SE NEW RVR IN 1208 73 50/ 10/ 12 1024.9 30 SE NEW RVR IN NOT AVBL 27 SE WRIGHTSVLE 1208 75 75 70/ 4/ 8 1025.2 5 SE WRIGHTSVLE 1208 70 74 350/ 8/ 12 1025.1 225 S CAPE HAT 1150 76 80 60/ 12/ 16 1023.2 4/ 8 3/ 8 41 SE CHARLESTON 1250 75 81 40/ 14/ 17 1024.1 $$

USA.gov is the U.S. government's official web portal to all federal, state and local government web resources and services.